BRO-18

导读 | 豆包AI

BRO-18卫星计划于2025年6月23日发射,目前发射国家暂未公布。截至2026年3月,该卫星已完成发射入轨阶段,现有公开信息中暂未披露其具体任务定位、研制单位及运营细节,作为编号为BRO系列的第18颗卫星,推测该卫星大概率服务于通信技术试验、遥感观测或者空间科学探测领域,其具体功能和后续运行进展仍有待官方进一步披露。

基本信息
目录编号:
64550
目录名称:
BRO-18
国际标识:
2025-135Y
轨道中心:
EARTH
卫星名称:
BRO-18
卫星全名:
BRO-18
卫星状态:
在轨 (已飞行311 天)
发射日期:
2025-06-23 UTC
国别 :
法国 (FR)
星等 :
--
轨道信息
数据来源 国际轨道数据
星历时间: 2026-04-30T14:00:57+0800
7小时前
查看轨道信息
半长轴: 6879.215km
偏心率: 0.0002431
轨道倾角: 97.457°
近地点辐角 79.361°
升交点赤经 235.686°
平近点角 280.790°
近地点: 499.405km
远地点: 502.751km
周期: 94.639分钟
每日圈数: 15.215789
详细信息
使用方式:
暂无
2D轨道图
3D轨道图
轨道高度分析图
轨道倾角分析图
轨道综合分析图
查看轨道综合分析图